TimeCST,TemperatureF,Dew PointF,Humidity,Sea Level PressureIn,VisibilityMPH,Wind Direction,Wind SpeedMPH,Gust SpeedMPH,PrecipitationIn,Events,Conditions,WindDirDegrees,DateUTC
12:14 AM,24.8,21.2,86,30.08,10.0,SE,8.1,-,N/A,,Clear,140,2013-01-10 06:14:00
12:34 AM,24.8,21.2,86,30.08,10.0,SSE,9.2,-,N/A,,Clear,160,2013-01-10 06:34:00
12:54 AM,26.6,21.2,80,30.08,10.0,SSE,6.9,-,N/A,,Clear,150,2013-01-10 06:54:00
1:14 AM,30.2,24.8,80,30.09,10.0,SSE,11.5,-,N/A,,Clear,160,2013-01-10 07:14:00
1:33 AM,33.8,24.8,70,30.09,10.0,South,11.5,-,N/A,,Clear,170,2013-01-10 07:33:00
1:54 AM,35.6,24.8,65,30.09,10.0,South,11.5,-,N/A,,Clear,180,2013-01-10 07:54:00
2:14 AM,35.6,26.6,70,30.09,10.0,South,12.7,-,N/A,,Clear,170,2013-01-10 08:14:00
2:33 AM,35.6,24.8,65,30.08,10.0,South,13.8,-,N/A,,Clear,180,2013-01-10 08:33:00
2:54 AM,37.4,26.6,65,30.08,10.0,South,11.5,-,N/A,,Clear,170,2013-01-10 08:54:00
3:14 AM,37.4,26.6,65,30.08,10.0,South,10.4,-,N/A,,Clear,170,2013-01-10 09:14:00
3:33 AM,37.4,24.8,60,30.08,10.0,South,10.4,-,N/A,,Clear,170,2013-01-10 09:33:00
3:54 AM,37.4,26.6,65,30.07,10.0,SSE,9.2,17.3,N/A,,Clear,160,2013-01-10 09:54:00
4:13 AM,37.4,26.6,65,30.06,10.0,South,10.4,16.1,N/A,,Clear,170,2013-01-10 10:13:00
4:34 AM,37.4,24.8,60,30.05,10.0,South,10.4,-,N/A,,Clear,170,2013-01-10 10:34:00
4:54 AM,39.2,26.6,61,30.04,10.0,South,16.1,24.2,N/A,,Clear,170,2013-01-10 10:54:00
5:13 AM,39.2,26.6,61,30.03,10.0,South,16.1,21.9,N/A,,Clear,180,2013-01-10 11:13:00
5:34 AM,41.0,26.6,57,30.02,10.0,South,16.1,23.0,N/A,,Clear,180,2013-01-10 11:34:00
5:54 AM,41.0,26.6,57,30.02,10.0,SSW,15.0,26.5,N/A,,Clear,200,2013-01-10 11:54:00
6:34 AM,41.0,26.6,57,30.02,10.0,SSW,13.8,24.2,N/A,,Clear,200,2013-01-10 12:34:00
6:54 AM,41.0,24.8,53,30.02,10.0,South,13.8,23.0,N/A,,Clear,190,2013-01-10 12:54:00
7:14 AM,39.2,26.6,61,30.03,10.0,SSE,10.4,18.4,N/A,,Clear,150,2013-01-10 13:14:00
7:34 AM,37.4,24.8,60,30.03,10.0,SSE,10.4,-,N/A,,Clear,150,2013-01-10 13:34:00
7:54 AM,35.6,24.8,65,30.02,10.0,SE,15.0,-,N/A,,Clear,140,2013-01-10 13:54:00
8:14 AM,33.8,24.8,70,30.03,10.0,SSE,12.7,-,N/A,,Clear,150,2013-01-10 14:14:00
8:34 AM,35.6,24.8,65,30.04,10.0,SSE,13.8,18.4,N/A,,Clear,150,2013-01-10 14:34:00
8:54 AM,37.4,24.8,60,30.05,10.0,South,19.6,24.2,N/A,,Clear,170,2013-01-10 14:54:00
9:14 AM,39.2,24.8,56,30.05,10.0,South,19.6,28.8,N/A,,Clear,180,2013-01-10 15:14:00
9:54 AM,37.4,24.8,60,30.04,10.0,South,13.8,-,N/A,,Clear,170,2013-01-10 15:54:00
10:14 AM,37.4,24.8,60,30.03,10.0,South,15.0,-,N/A,,Clear,170,2013-01-10 16:14:00
10:34 AM,39.2,24.8,56,30.01,10.0,South,16.1,-,N/A,,Clear,170,2013-01-10 16:34:00
10:54 AM,39.2,24.8,56,29.99,10.0,South,16.1,-,N/A,,Clear,180,2013-01-10 16:54:00
11:14 AM,39.2,24.8,56,29.98,10.0,South,19.6,25.3,N/A,,Clear,180,2013-01-10 17:14:00
11:34 AM,39.2,24.8,56,29.96,10.0,South,15.0,-,N/A,,Clear,170,2013-01-10 17:34:00
11:54 AM,39.2,24.8,56,29.94,10.0,SSE,17.3,21.9,N/A,,Clear,160,2013-01-10 17:54:00
12:14 PM,39.2,23.0,52,29.93,10.0,SSE,18.4,21.9,N/A,,Clear,160,2013-01-10 18:14:00
12:34 PM,39.2,24.8,56,29.91,10.0,SSE,13.8,-,N/A,,Clear,160,2013-01-10 18:34:00
12:54 PM,39.2,24.8,56,29.89,10.0,SSE,11.5,20.7,N/A,,Clear,150,2013-01-10 18:54:00
1:34 PM,37.4,24.8,60,29.86,10.0,SSE,13.8,-,N/A,,Clear,150,2013-01-10 19:34:00
1:54 PM,37.4,24.8,60,29.86,10.0,SE,12.7,-,N/A,,Clear,140,2013-01-10 19:54:00
2:14 PM,35.6,24.8,65,29.86,10.0,SE,17.3,-,N/A,,Clear,140,2013-01-10 20:14:00
2:34 PM,35.6,24.8,65,29.85,10.0,SE,17.3,-,N/A,,Scattered Clouds,140,2013-01-10 20:34:00
2:54 PM,35.6,24.8,65,29.84,10.0,SE,20.7,-,N/A,,Scattered Clouds,140,2013-01-10 20:54:00
3:13 PM,35.6,26.6,70,29.83,10.0,SSE,18.4,-,N/A,,Overcast,150,2013-01-10 21:13:00
3:34 PM,35.6,26.6,70,29.83,10.0,SSE,11.5,-,N/A,Rain,Light Rain,150,2013-01-10 21:34:00
3:54 PM,33.8,28.4,81,29.82,3.0,SSE,11.5,17.3,0.01,Rain,Light Rain,150,2013-01-10 21:54:00
4:14 PM,33.8,28.4,81,29.81,3.0,SE,16.1,-,0.02,Rain,Light Rain,140,2013-01-10 22:14:00
4:34 PM,33.8,30.2,87,29.80,3.0,SE,15.0,-,0.04,Rain,Light Rain,140,2013-01-10 22:34:00
4:54 PM,33.8,30.2,87,29.78,4.0,SE,16.1,-,0.07,Rain,Light Rain,140,2013-01-10 22:54:00
5:14 PM,33.8,30.2,87,29.77,7.0,SE,19.6,-,0.02,Rain,Light Rain,140,2013-01-10 23:14:00
5:34 PM,33.8,30.2,87,29.75,5.0,SE,18.4,-,0.04,Rain,Rain,140,2013-01-10 23:34:00
5:54 PM,33.8,30.2,87,29.73,7.0,SE,20.7,25.3,0.06,Rain,Light Rain,140,2013-01-10 23:54:00
6:14 PM,33.8,30.2,87,29.71,7.0,SE,21.9,-,N/A,Rain,Light Rain,140,2013-01-11 00:14:00
6:34 PM,32.0,30.2,93,29.70,7.0,SE,21.9,29.9,0.01,Rain,Light Rain,140,2013-01-11 00:34:00
6:54 PM,32.0,28.4,87,29.70,5.0,SE,21.9,28.8,0.03,,Overcast,140,2013-01-11 00:54:00
7:14 PM,32.0,30.2,93,29.70,7.0,SE,23.0,27.6,0.01,Rain,Light Rain,140,2013-01-11 01:14:00
7:33 PM,32.0,30.2,93,29.70,5.0,SSE,16.1,26.5,0.03,Rain,Light Rain,150,2013-01-11 01:33:00
7:54 PM,32.0,30.2,93,29.69,4.0,SSE,15.0,26.5,0.04,,Overcast,150,2013-01-11 01:54:00
8:14 PM,32.0,30.2,93,29.68,5.0,SSE,12.7,20.7,0.01,Rain,Rain,150,2013-01-11 02:14:00
8:33 PM,32.0,30.2,93,29.67,2.5,SSE,13.8,21.9,0.02,,Overcast,150,2013-01-11 02:33:00
8:54 PM,32.0,30.2,93,29.66,4.0,SSE,13.8,19.6,0.02,,Light Drizzle,150,2013-01-11 02:54:00
9:14 PM,32.0,30.2,93,29.64,2.5,SE,18.4,-,0.01,,Drizzle,140,2013-01-11 03:14:00
9:34 PM,32.0,30.2,93,29.62,4.0,SE,18.4,-,0.02,Rain,Light Rain,140,2013-01-11 03:34:00
9:53 PM,32.0,30.2,93,29.61,3.0,SSE,19.6,-,0.02,Rain,Light Rain,150,2013-01-11 03:53:00
10:14 PM,33.8,30.2,87,29.61,2.5,SSE,12.7,18.4,0.01,,Light Drizzle,150,2013-01-11 04:14:00
10:34 PM,33.8,30.2,87,29.60,1.8,SSE,11.5,18.4,0.01,Rain,Light Rain,150,2013-01-11 04:34:00
11:14 PM,33.8,30.2,87,29.58,1.2,SSE,10.4,18.4,N/A,,Light Drizzle,150,2013-01-11 05:14:00
11:54 PM,33.8,30.2,87,29.54,1.2,SSE,13.8,18.4,N/A,,Overcast,150,2013-01-11 05:54:00